| time (UTC) | temp C | wind direction | speed KPH | gust KPH | rain 1hr cm | rain 24hr cm | rain mn cm | humidity % | barometer mb |
| 20260509175403 | 23 | 343 | 3.2 | 16.1 | 0.00 | 0.64 | 0.00 | 56 | 1008.9 |
| 20260509174503 | 23 | 336 | 6.4 | 24.1 | 0.00 | 0.64 | 0.00 | 58 | 1009.0 |
| 20260509173624 | 23 | 333 | 6.4 | 24.1 | 0.00 | 0.64 | 0.00 | 56 | 1009.1 |
| 20260509172703 | 22 | 335 | 6.4 | 17.7 | 0.00 | 0.64 | 0.00 | 57 | 1009.2 |
| 20260509171803 | 23 | 337 | 3.2 | 17.7 | 0.00 | 0.64 | 0.00 | 58 | 1009.2 |
| 20260509170903 | 22 | 329 | 3.2 | 14.5 | 0.00 | 0.64 | 0.00 | 58 | 1009.4 |
| 20260509170003 | 22 | 319 | 1.6 | 14.5 | 0.00 | 0.64 | 0.00 | 58 | 1009.4 |
| 20260509165403 | 22 | 335 | 1.6 | 11.3 | 0.00 | 0.64 | 0.00 | 61 | 1009.3 |
| 20260509164503 | 22 | 315 | 3.2 | 11.3 | 0.00 | 0.64 | 0.00 | 62 | 1009.4 |
| 20260509163603 | 21 | 277 | 1.6 | 11.3 | 0.00 | 0.64 | 0.00 | 62 | 1009.5 |
| 20260509162703 | 21 | 151 | 1.6 | 9.7 | 0.00 | 0.64 | 0.00 | 67 | 1009.5 |
| 20260509161803 | 21 | 148 | 1.6 | 6.4 | 0.00 | 0.64 | 0.00 | 71 | 1009.4 |
| 20260509160903 | 20 | 329 | 1.6 | 8.0 | 0.00 | 0.64 | 0.00 | 71 | 1009.4 |
| 20260509160003 | 20 | 145 | 1.6 | 11.3 | 0.00 | 0.64 | 0.00 | 75 | 1009.4 |
| 20260509155403 | 20 | 214 | 1.6 | 9.7 | 0.00 | 0.64 | 0.00 | 75 | 1009.4 |
| 20260509154503 | 19 | 260 | 1.6 | 6.4 | 0.00 | 0.64 | 0.00 | 77 | 1009.3 |
| 20260509153603 | 18 | 197 | 0.0 | 4.8 | 0.00 | 0.64 | 0.00 | 80 | 1009.3 |
| 20260509152703 | 18 | 150 | 1.6 | 4.8 | 0.00 | 0.64 | 0.00 | 83 | 1009.4 |
| 20260509151803 | 17 | 3 | 1.6 | 9.7 | 0.00 | 0.64 | 0.00 | 82 | 1009.4 |
| 20260509150903 | 17 | 160 | 1.6 | 6.4 | 0.00 | 0.64 | 0.00 | 85 | 1009.3 |
| 20260509150024 | 17 | 164 | 1.6 | 8.0 | 0.00 | 0.64 | 0.00 | 86 | 1009.3 |
| 20260509145424 | 17 | 206 | 1.6 | 9.7 | 0.00 | 0.64 | 0.00 | 86 | 1009.3 |
| 20260509144524 | 16 | 348 | 1.6 | 9.7 | 0.00 | 0.64 | 0.00 | 87 | 1009.3 |
| 20260509143603 | 16 | 175 | 1.6 | 6.4 | 0.00 | 0.64 | 0.00 | 89 | 1009.2 |
| 20260509142703 | 16 | 173 | 1.6 | 6.4 | 0.00 | 0.64 | 0.00 | 90 | 1009.2 |
| 20260509141803 | 15 | 334 | 3.2 | 9.7 | 0.00 | 0.64 | 0.00 | 90 | 1009.2 |
| 20260509140924 | 15 | 232 | 1.6 | 8.0 | 0.00 | 0.64 | 0.00 | 91 | 1009.1 |
| 20260509140025 | 15 | 131 | 0.0 | 4.8 | 0.00 | 0.64 | 0.00 | 91 | 1009.0 |
| 20260509135403 | 15 | 149 | 0.0 | 3.2 | 0.00 | 0.64 | 0.00 | 91 | 1009.0 |
| 20260509134503 | 15 | 291 | 0.0 | 4.8 | 0.00 | 0.64 | 0.00 | 92 | 1009.1 |
| 20260509133603 | 15 | 158 | 0.0 | 6.4 | 0.00 | 0.64 | 0.00 | 93 | 1008.9 |
| 20260509132703 | 14 | 129 | 1.6 | 6.4 | 0.00 | 0.64 | 0.00 | 93 | 1009.0 |
| 20260509131803 | 14 | 175 | 1.6 | 4.8 | 0.00 | 0.64 | 0.00 | 93 | 1009.0 |
| 20260509130903 | 14 | 240 | 1.6 | 6.4 | 0.00 | 0.64 | 0.00 | 93 | 1009.1 |
| 20260509130003 | 14 | 264 | 0.0 | 3.2 | 0.00 | 0.64 | 0.00 | 94 | 1009.0 |
| 20260509125403 | 14 | 271 | 0.0 | 4.8 | 0.00 | 0.64 | 0.00 | 94 | 1009.1 |
| 20260509124503 | 14 | 208 | 1.6 | 8.0 | 0.00 | 0.64 | 0.00 | 94 | 1009.1 |
| 20260509123603 | 14 | 178 | 1.6 | 4.8 | 0.00 | 0.64 | 0.00 | 94 | 1009.1 |
| 20260509122703 | 14 | 179 | 0.0 | 1.6 | 0.00 | 0.64 | 0.00 | 95 | 1009.0 |
| 20260509121803 | 14 | 242 | 0.0 | 1.6 | 0.00 | 0.64 | 0.00 | 95 | 1009.1 |
| 20260509120903 | 13 | 322 | 0.0 | 4.8 | 0.00 | 0.64 | 0.00 | 95 | 1008.9 |
| 20260509120003 | 13 | 6 | 0.0 | 3.2 | 0.00 | 0.64 | 0.00 | 95 | 1008.7 |
| 20260509115403 | 13 | 345 | 0.0 | 4.8 | 0.00 | 0.64 | 0.00 | 95 | 1008.7 |
| 20260509114503 | 13 | 308 | 0.0 | 6.4 | 0.00 | 0.64 | 0.00 | 95 | 1008.8 |
| 20260509113603 | 13 | 340 | 0.0 | 3.2 | 0.00 | 0.64 | 0.00 | 95 | 1008.7 |
| 20260509112703 | 13 | 277 | 0.0 | 4.8 | 0.00 | 0.64 | 0.00 | 95 | 1008.6 |
| 20260509111824 | 13 | 190 | 0.0 | 4.8 | 0.00 | 0.64 | 0.00 | 95 | 1008.6 |
| 20260509110903 | 13 | 238 | 0.0 | 3.2 | 0.00 | 0.64 | 0.00 | 95 | 1008.7 |
| 20260509110003 | 13 | 188 | 0.0 | 4.8 | 0.00 | 0.64 | 0.00 | 95 | 1008.6 |
| 20260509105403 | 13 | 184 | 0.0 | 4.8 | 0.00 | 0.64 | 0.00 | 95 | 1008.6 |
| 20260509104503 | 13 | 203 | 0.0 | 4.8 | 0.00 | 0.64 | 0.00 | 95 | 1008.6 |
| 20260509103603 | 13 | 318 | 1.6 | 6.4 | 0.00 | 0.64 | 0.00 | 95 | 1008.6 |
| 20260509102703 | 13 | 314 | 1.6 | 12.9 | 0.00 | 0.64 | 0.00 | 95 | 1008.4 |
| 20260509101803 | 13 | 333 | 1.6 | 9.7 | 0.00 | 0.64 | 0.00 | 95 | 1008.4 |
| 20260509100903 | 13 | 197 | 1.6 | 4.8 | 0.00 | 0.64 | 0.00 | 95 | 1008.2 |
| 20260509100004 | 13 | 174 | 1.6 | 6.4 | 0.00 | 0.64 | 0.00 | 95 | 1008.2 |
| 20260509095403 | 13 | 170 | 0.0 | 3.2 | 0.00 | 0.64 | 0.00 | 95 | 1008.2 |
| 20260509094524 | 13 | 264 | 0.0 | 1.6 | 0.00 | 0.64 | 0.00 | 95 | 1008.0 |
| 20260509093603 | 13 | 151 | 0.0 | 3.2 | 0.00 | 0.64 | 0.00 | 95 | 1008.0 |
| 20260509092703 | 13 | 180 | 0.0 | 6.4 | 0.00 | 0.64 | 0.00 | 95 | 1008.1 |
| 20260509091824 | 13 | 231 | 0.0 | 3.2 | 0.00 | 0.64 | 0.00 | 95 | 1008.0 |
| 20260509090903 | 13 | 236 | 0.0 | 3.2 | 0.00 | 0.64 | 0.00 | 95 | 1007.9 |
| 20260509090004 | 13 | 135 | 0.0 | 1.6 | 0.00 | 0.64 | 0.00 | 95 | 1007.9 |
| 20260509085403 | 13 | 0 | 0.0 | 1.6 | 0.00 | 0.64 | 0.00 | 95 | 1007.9 |
| 20260509084503 | 13 | 252 | 0.0 | 4.8 | 0.00 | 0.64 | 0.00 | 95 | 1007.8 |
| 20260509083603 | 13 | 172 | 0.0 | 6.4 | 0.00 | 0.64 | 0.00 | 95 | 1008.0 |
| 20260509082703 | 13 | 203 | 0.0 | 1.6 | 0.00 | 0.64 | 0.00 | 95 | 1008.0 |
| 20260509081803 | 13 | 152 | 0.0 | 9.7 | 0.00 | 0.64 | 0.00 | 95 | 1008.1 |
| 20260509080903 | 13 | 260 | 0.0 | 4.8 | 0.00 | 0.64 | 0.00 | 95 | 1008.0 |
| 20260509080004 | 13 | 232 | 0.0 | 3.2 | 0.00 | 0.64 | 0.00 | 95 | 1008.0 |
| 20260509075403 | 13 | 0 | 0.0 | 1.6 | 0.00 | 0.64 | 0.00 | 95 | 1008.0 |
| 20260509074524 | 13 | 0 | 0.0 | 0.0 | 0.00 | 0.64 | 0.00 | 95 | 1007.8 |
| 20260509073603 | 13 | 0 | 0.0 | 0.0 | 0.00 | 0.64 | 0.00 | 95 | 1007.9 |
| 20260509072703 | 13 | 0 | 0.0 | 1.6 | 0.00 | 0.64 | 0.00 | 95 | 1007.9 |
| 20260509071824 | 13 | 0 | 0.0 | 0.0 | 0.00 | 0.64 | 0.00 | 95 | 1008.0 |
| 20260509070903 | 13 | 0 | 0.0 | 1.6 | 0.00 | 0.64 | 0.00 | 95 | 1008.0 |
| 20260509070003 | 13 | 0 | 0.0 | 0.0 | 0.00 | 0.64 | 0.00 | 95 | 1007.9 |
| 20260509065403 | 13 | 0 | 0.0 | 0.0 | 0.00 | 0.64 | 0.00 | 95 | 1007.9 |
| 20260509064503 | 13 | 0 | 0.0 | 0.0 | 0.00 | 0.64 | 0.00 | 95 | 1007.9 |
| 20260509063603 | 13 | 0 | 0.0 | 0.0 | 0.00 | 0.64 | 0.00 | 95 | 1008.0 |
| 20260509062703 | 13 | 0 | 0.0 | 0.0 | 0.00 | 0.64 | 0.00 | 95 | 1007.9 |
| 20260509061824 | 13 | 0 | 0.0 | 0.0 | 0.00 | 0.64 | 0.00 | 95 | 1007.9 |
| 20260509060903 | 13 | 123 | 0.0 | 1.6 | 0.00 | 0.64 | 0.00 | 95 | 1008.0 |
| 20260509060004 | 13 | 130 | 0.0 | 1.6 | 0.00 | 0.64 | 0.00 | 95 | 1007.7 |
| 20260509055403 | 13 | 128 | 0.0 | 3.2 | 0.00 | 0.64 | 0.00 | 95 | 1007.9 |
| 20260509054524 | 13 | 130 | 0.0 | 3.2 | 0.00 | 0.64 | 0.00 | 95 | 1008.0 |
| 20260509053603 | 13 | 0 | 0.0 | 0.0 | 0.00 | 0.64 | 0.00 | 95 | 1008.1 |
| 20260509052703 | 14 | 0 | 0.0 | 0.0 | 0.00 | 0.64 | 0.00 | 95 | 1008.2 |
| 20260509051803 | 14 | 0 | 0.0 | 0.0 | 0.00 | 0.64 | 0.00 | 95 | 1008.0 |
| 20260509050903 | 14 | 134 | 0.0 | 1.6 | 0.00 | 0.64 | 0.00 | 94 | 1007.9 |
| 20260509050004 | 14 | 133 | 0.0 | 1.6 | 0.00 | 0.64 | 0.00 | 94 | 1008.0 |
| 20260509045403 | 14 | 0 | 0.0 | 1.6 | 0.00 | 0.64 | 0.64 | 94 | 1007.9 |
| 20260509044503 | 14 | 132 | 0.0 | 1.6 | 0.00 | 0.64 | 0.64 | 94 | 1008.2 |
| 20260509043603 | 14 | 0 | 0.0 | 0.0 | 0.03 | 0.64 | 0.64 | 94 | 1008.3 |
| 20260509042724 | 14 | 0 | 0.0 | 0.0 | 0.05 | 0.64 | 0.64 | 94 | 1008.3 |
| 20260509041805 | 14 | 0 | 0.0 | 0.0 | 0.08 | 0.64 | 0.64 | 94 | 1008.3 |
| 20260509040903 | 14 | 0 | 0.0 | 1.6 | 0.10 | 0.64 | 0.64 | 94 | 1008.4 |
| 20260509040004 | 14 | 0 | 0.0 | 1.6 | 0.15 | 0.64 | 0.64 | 94 | 1008.5 |
| 20260509035403 | 14 | 136 | 0.0 | 8.0 | 0.20 | 0.64 | 0.64 | 94 | 1008.4 |
| 20260509034503 | 14 | 133 | 0.0 | 3.2 | 0.28 | 0.64 | 0.64 | 94 | 1008.6 |
| 20260509033603 | 14 | 0 | 0.0 | 0.0 | 0.38 | 0.61 | 0.61 | 94 | 1009.0 |
| 20260509032703 | 14 | 0 | 0.0 | 0.0 | 0.43 | 0.58 | 0.58 | 93 | 1009.1 |
| 20260509031803 | 14 | 0 | 0.0 | 0.0 | 0.46 | 0.56 | 0.56 | 93 | 1009.2 |
| 20260509030903 | 14 | 0 | 0.0 | 0.0 | 0.46 | 0.53 | 0.53 | 93 | 1009.1 |
| 20260509030003 | 15 | 0 | 0.0 | 0.0 | 0.43 | 0.48 | 0.48 | 93 | 1009.1 |
| 20260509025403 | 15 | 333 | 0.0 | 3.2 | 0.38 | 0.43 | 0.43 | 93 | 1009.2 |
| 20260509024524 | 15 | 316 | 0.0 | 6.4 | 0.30 | 0.36 | 0.36 | 92 | 1009.3 |
| 20260509023603 | 15 | 329 | 1.6 | 12.9 | 0.18 | 0.23 | 0.23 | 92 | 1009.5 |
| 20260509022703 | 15 | 331 | 1.6 | 12.9 | 0.10 | 0.15 | 0.15 | 91 | 1009.3 |
| 20260509021803 | 15 | 322 | 0.0 | 6.4 | 0.05 | 0.10 | 0.10 | 91 | 1009.4 |
| 20260509020903 | 15 | 333 | 0.0 | 3.2 | 0.03 | 0.08 | 0.08 | 91 | 1009.2 |
| 20260509020003 | 15 | 0 | 0.0 | 0.0 | 0.00 | 0.05 | 0.05 | 91 | 1009.1 |
| 20260509015424 | 15 | 0 | 0.0 | 0.0 | 0.00 | 0.05 | 0.05 | 91 | 1008.8 |
| 20260509014503 | 15 | 0 | 0.0 | 0.0 | 0.03 | 0.05 | 0.05 | 91 | 1008.5 |
| 20260509013603 | 15 | 0 | 0.0 | 0.0 | 0.03 | 0.05 | 0.05 | 90 | 1008.3 |
| 20260509012703 | 15 | 0 | 0.0 | 0.0 | 0.03 | 0.05 | 0.05 | 89 | 1008.3 |
| 20260509011803 | 15 | 0 | 0.0 | 0.0 | 0.05 | 0.05 | 0.05 | 88 | 1007.9 |
| 20260509010903 | 16 | 0 | 0.0 | 0.0 | 0.05 | 0.05 | 0.05 | 88 | 1007.7 |
| 20260509010004 | 16 | 322 | 0.0 | 1.6 | 0.05 | 0.05 | 0.05 | 87 | 1007.9 |
| 20260509005403 | 16 | 326 | 0.0 | 9.7 | 0.05 | 0.05 | 0.05 | 86 | 1008.1 |
| 20260509004503 | 16 | 327 | 0.0 | 8.0 | 0.03 | 0.03 | 0.03 | 85 | 1008.0 |
| 20260509003624 | 16 | 322 | 1.6 | 4.8 | 0.03 | 0.03 | 0.03 | 83 | 1008.0 |
| 20260509002704 | 17 | 320 | 1.6 | 8.0 | 0.03 | 0.03 | 0.03 | 78 | 1008.3 |
| 20260509001803 | 18 | 326 | 0.0 | 6.4 | 0.00 | 0.00 | 0.00 | 73 | 1008.4 |
| 20260509000924 | 19 | 321 | 0.0 | 8.0 | 0.00 | 0.00 | 0.00 | 69 | 1008.2 |
| 20260509000004 | 19 | 326 | 1.6 | 6.4 | 0.00 | 0.00 | 0.00 | 67 | 1007.9 |
| 20260508235403 | 20 | 330 | 0.0 | 4.8 | 0.00 | 0.00 | 0.00 | 66 | 1007.9 |
| 20260508234503 | 20 | 328 | 0.0 | 8.0 | 0.00 | 0.00 | 0.00 | 65 | 1008.0 |
| 20260508233603 | 20 | 325 | 1.6 | 6.4 | 0.00 | 0.00 | 0.00 | 63 | 1007.8 |
| 20260508232703 | 20 | 322 | 1.6 | 6.4 | 0.00 | 0.00 | 0.00 | 63 | 1007.9 |
| 20260508231803 | 21 | 328 | 1.6 | 4.8 | 0.00 | 0.00 | 0.00 | 62 | 1008.1 |
| 20260508230903 | 21 | 326 | 0.0 | 8.0 | 0.00 | 0.00 | 0.00 | 61 | 1007.9 |
| 20260508230003 | 21 | 329 | 0.0 | 4.8 | 0.00 | 0.00 | 0.00 | 60 | 1008.0 |
| 20260508225403 | 21 | 326 | 0.0 | 3.2 | 0.00 | 0.00 | 0.00 | 59 | 1008.0 |
| 20260508224503 | 21 | 329 | 1.6 | 6.4 | 0.00 | 0.00 | 0.00 | 59 | 1008.0 |
| 20260508223603 | 22 | 324 | 1.6 | 6.4 | 0.00 | 0.00 | 0.00 | 56 | 1007.8 |
| 20260508222703 | 22 | 328 | 3.2 | 9.7 | 0.00 | 0.00 | 0.00 | 53 | 1007.9 |
| 20260508221803 | 22 | 328 | 1.6 | 12.9 | 0.00 | 0.00 | 0.00 | 54 | 1007.9 |
| 20260508220903 | 22 | 322 | 3.2 | 11.3 | 0.00 | 0.00 | 0.00 | 53 | 1008.0 |
| 20260508220003 | 22 | 327 | 3.2 | 14.5 | 0.00 | 0.00 | 0.00 | 51 | 1008.0 |
| 20260508215403 | 22 | 327 | 1.6 | 14.5 | 0.00 | 0.00 | 0.00 | 50 | 1008.1 |
| 20260508214503 | 22 | 327 | 1.6 | 9.7 | 0.00 | 0.00 | 0.00 | 51 | 1008.1 |
| 20260508213603 | 23 | 332 | 3.2 | 14.5 | 0.00 | 0.00 | 0.00 | 50 | 1008.2 |
| 20260508212703 | 23 | 332 | 3.2 | 12.9 | 0.00 | 0.00 | 0.00 | 50 | 1008.4 |
| 20260508211824 | 23 | 341 | 3.2 | 14.5 | 0.00 | 0.00 | 0.00 | 50 | 1008.5 |
| 20260508210903 | 23 | 336 | 3.2 | 14.5 | 0.00 | 0.00 | 0.00 | 50 | 1008.7 |
| 20260508210003 | 22 | 339 | 1.6 | 12.9 | 0.00 | 0.00 | 0.00 | 51 | 1008.7 |
| 20260508205403 | 23 | 331 | 3.2 | 16.1 | 0.00 | 0.00 | 0.00 | 50 | 1008.8 |
| 20260508204503 | 23 | 339 | 3.2 | 17.7 | 0.00 | 0.00 | 0.00 | 50 | 1009.0 |
| 20260508203603 | 23 | 337 | 1.6 | 8.0 | 0.00 | 0.00 | 0.00 | 52 | 1009.0 |
| 20260508202703 | 23 | 137 | 1.6 | 9.7 | 0.00 | 0.00 | 0.00 | 52 | 1009.1 |
| 20260508201803 | 23 | 244 | 0.0 | 6.4 | 0.00 | 0.00 | 0.00 | 52 | 1009.1 |
| 20260508200903 | 23 | 156 | 0.0 | 6.4 | 0.00 | 0.00 | 0.00 | 54 | 1009.2 |
| 20260508200003 | 23 | 145 | 1.6 | 9.7 | 0.00 | 0.00 | 0.00 | 52 | 1009.3 |
| 20260508195403 | 23 | 139 | 1.6 | 8.0 | 0.00 | 0.00 | 0.00 | 54 | 1009.3 |
| 20260508194503 | 23 | 159 | 1.6 | 9.7 | 0.00 | 0.00 | 0.00 | 55 | 1009.3 |
| 20260508193603 | 22 | 323 | 1.6 | 16.1 | 0.00 | 0.00 | 0.00 | 57 | 1009.4 |
| 20260508192703 | 22 | 329 | 1.6 | 14.5 | 0.00 | 0.00 | 0.00 | 53 | 1009.5 |
| 20260508191803 | 22 | 331 | 1.6 | 6.4 | 0.00 | 0.00 | 0.00 | 56 | 1009.6 |
| 20260508190903 | 21 | 335 | 1.6 | 6.4 | 0.00 | 0.00 | 0.00 | 58 | 1009.6 |
| 20260508190003 | 21 | 230 | 0.0 | 3.2 | 0.00 | 0.00 | 0.00 | 60 | 1009.5 |
| 20260508185424 | 20 | 251 | 0.0 | 3.2 | 0.00 | 0.00 | 0.00 | 63 | 1009.6 |
| 20260508184503 | 20 | 141 | 0.0 | 1.6 | 0.00 | 0.00 | 0.00 | 61 | 1009.8 |
| 20260508183624 | 20 | 307 | 0.0 | 4.8 | 0.00 | 0.00 | 0.00 | 61 | 1009.8 |
| 20260508182703 | 20 | 143 | 0.0 | 4.8 | 0.00 | 0.00 | 0.00 | 61 | 1009.9 |
| 20260508181803 | 20 | 158 | 0.0 | 6.4 | 0.00 | 0.00 | 0.00 | 61 | 1009.8 |
| 20260508180903 | 20 | 156 | 0.0 | 4.8 | 0.00 | 0.00 | 0.00 | 58 | 1010.1 |
| 20260508180003 | 20 | 187 | 0.0 | 6.4 | 0.00 | 0.00 | 0.00 | 58 | 1010.3 |